Location: Eyeline Observatory
(43.2182°N, 78.8632°W)
Time: 21:21:31
(UTC-04:00)

ISS - Pass Details

Date: 07 October 2017
Orbit: 401 x 408 km, 51.6° (Epoch: 20 October)

Event Time Altitude Azimuth Distance (km) Brightness Sun altitude
Rises 20:40:39 0° 304° (NW) 2,329 1.2 -21.7°
Reaches altitude 10° 20:42:54 10° 317° (NW) 1,468 -0.2 -22.1°
Enters shadow 20:44:59 25° 350° (N) 863 -2.0 -22.5°
